Time,TemperatureF,DewpointF,PressureIn,WindDirection,WindDirectionDegrees,WindSpeedMPH,WindSpeedGustMPH,Humidity,HourlyPrecipIn,Conditions,Clouds,dailyrainin,SoftwareType,DateUTC
2013-11-10 00:00:00,60.4,58.1,30.19,ESE,107,0.0,0.0,92,0.00,,,0.00,Wunderground v.1.15,2013-11-10 06:00:00,
2013-11-10 00:10:00,60.5,57.9,30.19,ESE,108,0.0,0.0,91,0.00,,,0.00,Wunderground v.1.15,2013-11-10 06:10:00,
2013-11-10 00:20:00,60.7,58.1,30.18,SE,134,0.0,0.0,91,0.00,,,0.00,Wunderground v.1.15,2013-11-10 06:20:00,
2013-11-10 00:30:00,60.5,57.9,30.18,SE,134,0.0,0.0,91,0.00,,,0.00,Wunderground v.1.15,2013-11-10 06:30:00,
2013-11-10 00:40:00,60.3,58.0,30.18,ENE,57,0.0,0.0,92,0.00,,,0.00,Wunderground v.1.15,2013-11-10 06:40:00,
2013-11-10 00:50:00,60.4,58.1,30.19,NE,56,0.0,0.0,92,0.00,,,0.00,Wunderground v.1.15,2013-11-10 06:50:00,
2013-11-10 01:00:00,60.4,58.1,30.19,ENE,59,0.0,1.0,92,0.00,,,0.00,Wunderground v.1.15,2013-11-10 07:00:00,
2013-11-10 01:10:00,60.4,58.1,30.19,East,82,0.0,0.0,92,0.00,,,0.00,Wunderground v.1.15,2013-11-10 07:10:00,
2013-11-10 01:20:00,60.4,57.8,30.19,ENE,66,0.0,0.0,91,0.00,,,0.00,Wunderground v.1.15,2013-11-10 07:20:00,
2013-11-10 01:30:00,60.4,57.1,30.19,NE,52,0.0,0.0,89,0.00,,,0.00,Wunderground v.1.15,2013-11-10 07:30:00,
2013-11-10 01:40:00,60.3,56.7,30.19,NE,46,0.0,0.0,88,0.00,,,0.00,Wunderground v.1.15,2013-11-10 07:40:00,
2013-11-10 01:50:00,60.1,56.2,30.18,ENE,61,0.0,0.0,87,0.00,,,0.00,Wunderground v.1.15,2013-11-10 07:50:00,
2013-11-10 02:00:00,59.9,55.7,30.18,NW,318,0.0,0.0,86,0.00,,,0.00,Wunderground v.1.15,2013-11-10 08:00:00,
2013-11-10 02:10:00,59.8,55.6,30.18,NE,54,0.0,0.0,86,0.00,,,0.00,Wunderground v.1.15,2013-11-10 08:10:00,
2013-11-10 02:20:00,59.7,55.5,30.18,NNE,32,1.0,1.0,86,0.00,,,0.00,Wunderground v.1.15,2013-11-10 08:20:00,
2013-11-10 02:30:00,59.5,55.0,30.18,NNW,343,1.0,1.0,85,0.00,,,0.00,Wunderground v.1.15,2013-11-10 08:30:00,
2013-11-10 02:40:00,59.4,54.9,30.19,NE,49,0.0,0.0,85,0.00,,,0.00,Wunderground v.1.15,2013-11-10 08:40:00,
2013-11-10 02:50:00,59.5,55.0,30.19,ENE,67,0.0,1.0,85,0.00,,,0.00,Wunderground v.1.15,2013-11-10 08:50:00,
2013-11-10 03:10:00,59.6,54.8,30.19,East,90,0.0,1.0,84,0.00,,,0.00,Wunderground v.1.15,2013-11-10 09:10:00,
2013-11-10 03:20:00,59.6,55.1,30.19,NE,40,0.0,0.0,85,0.00,,,0.00,Wunderground v.1.15,2013-11-10 09:20:00,
2013-11-10 03:30:00,59.6,55.1,30.19,NE,52,0.0,0.0,85,0.00,,,0.00,Wunderground v.1.15,2013-11-10 09:30:00,
2013-11-10 03:40:00,59.6,55.1,30.19,NE,40,0.0,0.0,85,0.00,,,0.00,Wunderground v.1.15,2013-11-10 09:40:00,
2013-11-10 03:50:00,59.5,55.3,30.19,ENE,77,0.0,0.0,86,0.00,,,0.00,Wunderground v.1.15,2013-11-10 09:50:00,
2013-11-10 04:00:00,59.5,55.3,30.20,ENE,74,0.0,0.0,86,0.00,,,0.00,Wunderground v.1.15,2013-11-10 10:00:00,
2013-11-10 04:10:00,59.4,55.2,30.20,NNE,16,0.0,0.0,86,0.00,,,0.00,Wunderground v.1.15,2013-11-10 10:10:00,
2013-11-10 04:20:00,59.3,55.1,30.20,NE,46,0.0,0.0,86,0.00,,,0.00,Wunderground v.1.15,2013-11-10 10:20:00,
2013-11-10 04:30:00,59.3,55.1,30.20,NNE,12,0.0,0.0,86,0.00,,,0.00,Wunderground v.1.15,2013-11-10 10:30:00,
2013-11-10 04:40:00,59.3,55.4,30.20,NNE,25,0.0,0.0,87,0.00,,,0.00,Wunderground v.1.15,2013-11-10 10:40:00,
2013-11-10 04:50:00,59.4,55.5,30.20,East,81,0.0,0.0,87,0.00,,,0.00,Wunderground v.1.15,2013-11-10 10:50:00,
2013-11-10 05:00:00,59.4,55.5,30.21,NNE,25,0.0,0.0,87,0.00,,,0.00,Wunderground v.1.15,2013-11-10 11:00:00,
2013-11-10 05:10:00,59.4,55.5,30.21,ENE,70,0.0,0.0,87,0.00,,,0.00,Wunderground v.1.15,2013-11-10 11:10:00,
2013-11-10 05:20:00,59.4,55.8,30.21,ENE,70,0.0,0.0,88,0.00,,,0.00,Wunderground v.1.15,2013-11-10 11:20:00,
2013-11-10 05:30:00,59.4,55.5,30.21,NNW,330,0.0,0.0,87,0.00,,,0.00,Wunderground v.1.15,2013-11-10 11:30:00,
2013-11-10 05:40:00,59.4,55.5,30.22,NNW,335,0.0,0.0,87,0.00,,,0.00,Wunderground v.1.15,2013-11-10 11:40:00,
2013-11-10 05:50:00,59.4,55.5,30.22,North,351,0.0,0.0,87,0.00,,,0.00,Wunderground v.1.15,2013-11-10 11:50:00,
2013-11-10 06:00:00,59.4,55.5,30.23,NE,42,0.0,1.0,87,0.00,,,0.00,Wunderground v.1.15,2013-11-10 12:00:00,
2013-11-10 06:10:00,59.4,55.5,30.23,East,81,0.0,0.0,87,0.00,,,0.00,Wunderground v.1.15,2013-11-10 12:10:00,
2013-11-10 06:20:00,59.4,55.5,30.23,NNE,20,0.0,0.0,87,0.00,,,0.00,Wunderground v.1.15,2013-11-10 12:20:00,
2013-11-10 06:30:00,59.3,55.4,30.23,NNW,343,0.0,0.0,87,0.00,,,0.00,Wunderground v.1.15,2013-11-10 12:30:00,
2013-11-10 06:40:00,59.1,55.2,30.24,East,84,0.0,0.0,87,0.00,,,0.00,Wunderground v.1.15,2013-11-10 12:40:00,
2013-11-10 06:50:00,59.0,55.1,30.24,NE,56,0.0,1.0,87,0.00,,,0.00,Wunderground v.1.15,2013-11-10 12:50:00,
2013-11-10 07:00:00,58.9,55.0,30.24,ENE,73,0.0,1.0,87,0.00,,,0.00,Wunderground v.1.15,2013-11-10 13:00:00,
2013-11-10 07:10:00,58.9,54.7,30.24,NE,40,0.0,1.0,86,0.00,,,0.00,Wunderground v.1.15,2013-11-10 13:10:00,
2013-11-10 07:20:00,59.0,54.8,30.25,ENE,68,1.0,1.0,86,0.00,,,0.00,Wunderground v.1.15,2013-11-10 13:20:00,
2013-11-10 07:30:00,59.2,54.7,30.25,ENE,68,1.0,2.0,85,0.00,,,0.00,Wunderground v.1.15,2013-11-10 13:30:00,
2013-11-10 07:40:00,59.3,54.8,30.25,NE,34,1.0,1.0,85,0.00,,,0.00,Wunderground v.1.15,2013-11-10 13:40:00,
2013-11-10 07:50:00,59.4,54.9,30.26,ENE,58,1.0,1.0,85,0.00,,,0.00,Wunderground v.1.15,2013-11-10 13:50:00,
2013-11-10 08:00:00,59.5,55.0,30.26,ENE,66,1.0,1.0,85,0.00,,,0.00,Wunderground v.1.15,2013-11-10 14:00:00,
2013-11-10 08:10:00,59.7,55.2,30.26,NE,54,1.0,1.0,85,0.00,,,0.00,Wunderground v.1.15,2013-11-10 14:10:00,
2013-11-10 08:20:00,59.9,55.4,30.26,NE,52,1.0,1.0,85,0.00,,,0.00,Wunderground v.1.15,2013-11-10 14:20:00,
2013-11-10 08:30:00,60.1,55.6,30.26,ENE,59,1.0,1.0,85,0.00,,,0.00,Wunderground v.1.15,2013-11-10 14:30:00,
2013-11-10 08:40:00,60.3,55.8,30.26,NNE,26,2.0,2.0,85,0.00,,,0.00,Wunderground v.1.15,2013-11-10 14:40:00,
2013-11-10 08:50:00,60.7,56.2,30.27,NW,307,1.0,1.0,85,0.00,,,0.00,Wunderground v.1.15,2013-11-10 14:50:00,
2013-11-10 09:00:00,61.1,56.2,30.27,ENE,65,1.0,1.0,84,0.00,,,0.00,Wunderground v.1.15,2013-11-10 15:00:00,
2013-11-10 09:10:00,61.8,56.9,30.27,NNE,23,0.0,1.0,84,0.00,,,0.00,Wunderground v.1.15,2013-11-10 15:10:00,
2013-11-10 09:20:00,62.1,56.9,30.27,East,83,1.0,1.0,83,0.00,,,0.00,Wunderground v.1.15,2013-11-10 15:20:00,
2013-11-10 09:30:00,62.4,56.8,30.27,ENE,61,1.0,1.0,82,0.00,,,0.00,Wunderground v.1.15,2013-11-10 15:30:00,
2013-11-10 09:40:00,62.8,56.9,30.28,ENE,71,0.0,0.0,81,0.00,,,0.00,Wunderground v.1.15,2013-11-10 15:40:00,
2013-11-10 09:50:00,63.4,57.1,30.28,NNE,21,0.0,2.0,80,0.00,,,0.00,Wunderground v.1.15,2013-11-10 15:50:00,
2013-11-10 10:00:00,63.5,57.2,30.28,ENE,71,1.0,2.0,80,0.00,,,0.00,Wunderground v.1.15,2013-11-10 16:00:00,
2013-11-10 10:10:00,63.7,57.1,30.28,WSW,253,1.0,1.0,79,0.00,,,0.00,Wunderground v.1.15,2013-11-10 16:10:00,
2013-11-10 10:20:00,64.2,57.2,30.28,NW,315,1.0,1.0,78,0.00,,,0.00,Wunderground v.1.15,2013-11-10 16:20:00,
2013-11-10 10:30:00,64.6,57.6,30.28,ENE,68,0.0,2.0,78,0.00,,,0.00,Wunderground v.1.15,2013-11-10 16:30:00,
2013-11-10 10:40:00,65.0,58.0,30.27,NW,307,1.0,1.0,78,0.00,,,0.00,Wunderground v.1.15,2013-11-10 16:40:00,
2013-11-10 10:50:00,65.7,58.3,30.27,East,79,1.0,1.0,77,0.00,,,0.00,Wunderground v.1.15,2013-11-10 16:50:00,
2013-11-10 11:00:00,66.4,58.2,30.27,NE,49,1.0,1.0,75,0.00,,,0.00,Wunderground v.1.15,2013-11-10 17:00:00,
2013-11-10 11:10:00,66.7,58.1,30.27,ENE,77,1.0,1.0,74,0.00,,,0.00,Wunderground v.1.15,2013-11-10 17:10:00,
2013-11-10 11:20:00,67.3,58.0,30.26,NE,46,1.0,1.0,72,0.00,,,0.00,Wunderground v.1.15,2013-11-10 17:20:00,
2013-11-10 11:30:00,68.3,58.5,30.26,NE,44,1.0,1.0,71,0.00,,,0.00,Wunderground v.1.15,2013-11-10 17:30:00,
2013-11-10 11:40:00,69.4,58.4,30.25,NE,41,1.0,1.0,68,0.00,,,0.00,Wunderground v.1.15,2013-11-10 17:40:00,
2013-11-10 11:50:00,69.3,58.3,30.25,NE,41,1.0,1.0,68,0.00,,,0.00,Wunderground v.1.15,2013-11-10 17:50:00,
2013-11-10 12:00:00,69.4,57.5,30.24,North,350,2.0,2.0,66,0.00,,,0.00,Wunderground v.1.15,2013-11-10 18:00:00,
2013-11-10 12:10:00,69.3,57.0,30.24,NE,46,2.0,4.0,65,0.00,,,0.00,Wunderground v.1.15,2013-11-10 18:10:00,
2013-11-10 12:20:00,69.4,57.1,30.23,NE,53,2.0,2.0,65,0.00,,,0.00,Wunderground v.1.15,2013-11-10 18:20:00,
2013-11-10 12:30:00,69.3,57.0,30.22,NNE,15,2.0,2.0,65,0.00,,,0.00,Wunderground v.1.15,2013-11-10 18:30:00,
2013-11-10 12:40:00,69.5,57.2,30.22,North,11,2.0,2.0,65,0.00,,,0.00,Wunderground v.1.15,2013-11-10 18:40:00,
2013-11-10 12:50:00,69.8,57.1,30.22,ENE,65,2.0,2.0,64,0.00,,,0.00,Wunderground v.1.15,2013-11-10 18:50:00,
2013-11-10 13:00:00,70.1,57.8,30.22,NNW,329,1.0,1.0,65,0.00,,,0.00,Wunderground v.1.15,2013-11-10 19:00:00,
2013-11-10 13:10:00,70.2,57.9,30.21,NE,56,1.0,1.0,65,0.00,,,0.00,Wunderground v.1.15,2013-11-10 19:10:00,
2013-11-10 13:20:00,70.3,58.0,30.20,NNE,31,1.0,1.0,65,0.00,,,0.00,Wunderground v.1.15,2013-11-10 19:20:00,
2013-11-10 13:30:00,70.8,58.4,30.20,NNE,30,1.0,1.0,65,0.00,,,0.00,Wunderground v.1.15,2013-11-10 19:30:00,
2013-11-10 13:40:00,70.9,58.5,30.20,West,278,1.0,1.0,65,0.00,,,0.00,Wunderground v.1.15,2013-11-10 19:40:00,
2013-11-10 13:50:00,71.1,58.7,30.20,West,270,1.0,1.0,65,0.00,,,0.00,Wunderground v.1.15,2013-11-10 19:50:00,
2013-11-10 14:00:00,71.5,58.7,30.20,WNW,293,0.0,0.0,64,0.00,,,0.00,Wunderground v.1.15,2013-11-10 20:00:00,
2013-11-10 14:10:00,71.8,59.4,30.20,NW,323,1.0,1.0,65,0.00,,,0.00,Wunderground v.1.15,2013-11-10 20:10:00,
2013-11-10 14:20:00,71.5,58.7,30.19,ENE,60,1.0,1.0,64,0.00,,,0.00,Wunderground v.1.15,2013-11-10 20:20:00,
2013-11-10 14:30:00,71.5,59.1,30.19,NE,56,0.0,1.0,65,0.00,,,0.00,Wunderground v.1.15,2013-11-10 20:30:00,
2013-11-10 14:40:00,71.0,58.2,30.19,NNE,22,1.0,1.0,64,0.00,,,0.00,Wunderground v.1.15,2013-11-10 20:40:00,
2013-11-10 14:50:00,70.9,57.7,30.19,ENE,66,0.0,1.0,63,0.00,,,0.00,Wunderground v.1.15,2013-11-10 20:50:00,
2013-11-10 15:00:00,70.8,56.7,30.19,East,88,1.0,1.0,61,0.00,,,0.00,Wunderground v.1.15,2013-11-10 21:00:00,
2013-11-10 15:10:00,70.8,55.3,30.19,ENE,70,0.0,0.0,58,0.00,,,0.00,Wunderground v.1.15,2013-11-10 21:10:00,
2013-11-10 15:20:00,70.9,55.4,30.19,NE,42,0.0,0.0,58,0.00,,,0.00,Wunderground v.1.15,2013-11-10 21:20:00,
2013-11-10 15:30:00,70.9,55.9,30.19,WNW,286,0.0,0.0,59,0.00,,,0.00,Wunderground v.1.15,2013-11-10 21:30:00,
2013-11-10 15:40:00,71.0,55.5,30.19,NNW,335,0.0,0.0,58,0.00,,,0.00,Wunderground v.1.15,2013-11-10 21:40:00,
2013-11-10 15:50:00,71.1,56.0,30.19,NNW,335,0.0,0.0,59,0.00,,,0.00,Wunderground v.1.15,2013-11-10 21:50:00,
2013-11-10 16:00:00,70.8,55.8,30.20,NNE,22,0.0,0.0,59,0.00,,,0.00,Wunderground v.1.15,2013-11-10 22:00:00,
2013-11-10 16:10:00,70.7,57.0,30.20,NNE,30,0.0,0.0,62,0.00,,,0.00,Wunderground v.1.15,2013-11-10 22:10:00,
2013-11-10 16:20:00,70.7,57.0,30.20,NNE,31,0.0,0.0,62,0.00,,,0.00,Wunderground v.1.15,2013-11-10 22:20:00,
2013-11-10 16:30:00,71.0,56.9,30.20,North,11,0.0,0.0,61,0.00,,,0.00,Wunderground v.1.15,2013-11-10 22:30:00,
2013-11-10 16:40:00,71.6,57.9,30.20,North,11,0.0,0.0,62,0.00,,,0.00,Wunderground v.1.15,2013-11-10 22:40:00,
2013-11-10 16:50:00,71.6,57.0,30.20,North,11,0.0,0.0,60,0.00,,,0.00,Wunderground v.1.15,2013-11-10 22:50:00,
2013-11-10 17:00:00,71.0,58.2,30.20,North,11,0.0,0.0,64,0.00,,,0.00,Wunderground v.1.15,2013-11-10 23:00:00,
2013-11-10 17:10:00,69.7,58.3,30.21,NNE,15,0.0,0.0,67,0.00,,,0.00,Wunderground v.1.15,2013-11-10 23:10:00,
2013-11-10 17:20:00,68.4,58.2,30.21,NNE,15,0.0,0.0,70,0.00,,,0.00,Wunderground v.1.15,2013-11-10 23:20:00,
2013-11-10 17:30:00,67.3,58.3,30.21,NNE,15,0.0,0.0,73,0.00,,,0.00,Wunderground v.1.15,2013-11-10 23:30:00,
2013-11-10 17:40:00,65.9,58.1,30.21,NNE,15,0.0,0.0,76,0.00,,,0.00,Wunderground v.1.15,2013-11-10 23:40:00,
2013-11-10 17:50:00,64.9,58.2,30.21,NNE,15,0.0,0.0,79,0.00,,,0.00,Wunderground v.1.15,2013-11-10 23:50:00,
2013-11-10 18:00:00,64.1,58.8,30.21,NNE,15,0.0,0.0,83,0.00,,,0.00,Wunderground v.1.15,2013-11-11 00:00:00,
2013-11-10 18:10:00,63.3,58.4,30.22,NNE,15,0.0,0.0,84,0.00,,,0.00,Wunderground v.1.15,2013-11-11 00:10:00,
2013-11-10 18:20:00,62.7,58.5,30.22,NNE,15,0.0,0.0,86,0.00,,,0.00,Wunderground v.1.15,2013-11-11 00:20:00,
2013-11-10 18:30:00,62.2,58.3,30.22,NNE,15,0.0,0.0,87,0.00,,,0.00,Wunderground v.1.15,2013-11-11 00:30:00,
2013-11-10 18:40:00,61.6,58.0,30.23,NNE,15,0.0,0.0,88,0.00,,,0.00,Wunderground v.1.15,2013-11-11 00:40:00,
2013-11-10 18:50:00,61.1,57.8,30.22,NNE,15,0.0,0.0,89,0.00,,,0.00,Wunderground v.1.15,2013-11-11 00:50:00,
2013-11-10 19:00:00,60.5,57.6,30.23,NNE,15,0.0,0.0,90,0.00,,,0.00,Wunderground v.1.15,2013-11-11 01:00:00,
2013-11-10 19:10:00,60.0,57.4,30.23,NNE,15,0.0,0.0,91,0.00,,,0.00,Wunderground v.1.15,2013-11-11 01:10:00,
2013-11-10 19:20:00,59.6,57.0,30.23,NNE,15,0.0,0.0,91,0.00,,,0.00,Wunderground v.1.15,2013-11-11 01:20:00,
2013-11-10 19:30:00,59.3,57.0,30.24,NNE,15,0.0,0.0,92,0.00,,,0.00,Wunderground v.1.15,2013-11-11 01:30:00,
2013-11-10 19:40:00,59.0,57.0,30.24,NNE,15,0.0,0.0,93,0.00,,,0.00,Wunderground v.1.15,2013-11-11 01:40:00,
2013-11-10 19:50:00,58.7,56.7,30.24,NNE,15,0.0,0.0,93,0.00,,,0.00,Wunderground v.1.15,2013-11-11 01:50:00,
2013-11-10 20:00:00,58.4,56.4,30.24,NNE,15,0.0,0.0,93,0.00,,,0.00,Wunderground v.1.15,2013-11-11 02:00:00,
2013-11-10 20:10:00,57.9,55.9,30.24,NNE,15,0.0,0.0,93,0.00,,,0.00,Wunderground v.1.15,2013-11-11 02:10:00,
2013-11-10 20:20:00,57.5,55.8,30.24,NNE,15,0.0,0.0,94,0.00,,,0.00,Wunderground v.1.15,2013-11-11 02:20:00,
2013-11-10 20:30:00,57.6,56.2,30.24,NNE,14,0.0,0.0,95,0.00,,,0.00,Wunderground v.1.15,2013-11-11 02:30:00,
2013-11-10 20:40:00,57.6,56.2,30.24,NNE,15,0.0,0.0,95,0.00,,,0.00,Wunderground v.1.15,2013-11-11 02:40:00,
2013-11-10 20:50:00,57.4,56.0,30.24,NNE,15,0.0,0.0,95,0.00,,,0.00,Wunderground v.1.15,2013-11-11 02:50:00,
2013-11-10 21:00:00,57.5,56.1,30.24,NNE,15,0.0,0.0,95,0.00,,,0.00,Wunderground v.1.15,2013-11-11 03:00:00,
2013-11-10 21:10:00,57.3,55.9,30.25,NNE,15,0.0,0.0,95,0.00,,,0.00,Wunderground v.1.15,2013-11-11 03:10:00,
2013-11-10 21:20:00,57.2,56.1,30.24,NNE,15,0.0,0.0,96,0.00,,,0.00,Wunderground v.1.15,2013-11-11 03:20:00,
2013-11-10 21:30:00,57.0,55.9,30.24,NNE,15,0.0,0.0,96,0.00,,,0.00,Wunderground v.1.15,2013-11-11 03:30:00,
2013-11-10 21:40:00,57.0,55.9,30.25,NNE,15,0.0,0.0,96,0.00,,,0.00,Wunderground v.1.15,2013-11-11 03:40:00,
2013-11-10 21:50:00,57.1,56.0,30.24,NNE,15,0.0,0.0,96,0.00,,,0.00,Wunderground v.1.15,2013-11-11 03:50:00,
2013-11-10 22:00:00,57.0,55.9,30.24,NNE,15,0.0,0.0,96,0.00,,,0.00,Wunderground v.1.15,2013-11-11 04:00:00,
2013-11-10 22:10:00,56.9,55.8,30.24,NNE,15,0.0,0.0,96,0.00,,,0.00,Wunderground v.1.15,2013-11-11 04:10:00,
2013-11-10 22:20:00,56.7,55.6,30.24,NNE,15,0.0,0.0,96,0.00,,,0.00,Wunderground v.1.15,2013-11-11 04:20:00,
2013-11-10 22:30:00,56.6,55.5,30.24,NNE,15,0.0,0.0,96,0.00,,,0.00,Wunderground v.1.15,2013-11-11 04:30:00,
2013-11-10 22:40:00,56.5,55.7,30.24,NNE,15,0.0,0.0,97,0.00,,,0.00,Wunderground v.1.15,2013-11-11 04:40:00,
2013-11-10 22:50:00,56.4,55.6,30.24,NNE,15,0.0,0.0,97,0.00,,,0.00,Wunderground v.1.15,2013-11-11 04:50:00,
2013-11-10 23:00:00,56.3,55.5,30.24,NNE,15,0.0,0.0,97,0.00,,,0.00,Wunderground v.1.15,2013-11-11 05:00:00,
2013-11-10 23:10:00,56.0,55.2,30.24,NNE,15,0.0,0.0,97,0.00,,,0.00,Wunderground v.1.15,2013-11-11 05:10:00,
2013-11-10 23:20:00,55.9,55.1,30.24,NNE,15,0.0,0.0,97,0.00,,,0.00,Wunderground v.1.15,2013-11-11 05:20:00,
2013-11-10 23:30:00,56.0,55.2,30.24,NNE,15,0.0,0.0,97,0.00,,,0.00,Wunderground v.1.15,2013-11-11 05:30:00,
2013-11-10 23:40:00,55.9,55.1,30.24,NNE,15,0.0,0.0,97,0.00,,,0.00,Wunderground v.1.15,2013-11-11 05:40:00,
2013-11-10 23:50:00,55.8,55.0,30.23,NNE,15,0.0,0.0,97,0.00,,,0.00,Wunderground v.1.15,2013-11-11 05:50:00,